Weather History for Perry, FL

Change the Weather History Date:

Monday, June 17, 2013

  Actual Average (KCTY) Record (KCTY)
Temperature  
Mean Temperature 80 °F 80 °F  
Max Temperature 91 °F 91 °F 96 °F (1998)
Min Temperature 69 °F 70 °F 64 °F (2002)
Degree Days  
Heating Degree Days 0 0  
Month to date heating degree days 0  
Since 1 June heating degree days 0  
Since 1 July heating degree days 1306  
Cooling Degree Days 15 15  
Month to date cooling degree days 246  
Year to date cooling degree days 725  
Since 1 June cooling degree days 246  
Growing Degree Days 30 (Base 50)    
Moisture  
Dew Point 70 °F    
Average Humidity 75    
Maximum Humidity 100    
Minimum Humidity 43    
Precipitation  
Precipitation 0.09 in 0.21 in 0.82 in (2000)
Month to date precipitation 2.58  
Year to date precipitation 19.75  
Sea Level Pressure  
Sea Level Pressure 30.04 in    
Wind  
Wind Speed 5 mph (SSW)    
Max Wind Speed 16 mph    
Max Gust Speed 20 mph    
Visibility 8 miles    
Events Fog    
T = Trace of Precipitation, MM = Missing Value Source: NWS Daily Summary

Daily Weather History Graph

Daily Weather History Graph

Search for Another Location

Airport:

Trip Planner

Search our weather history database for the weather conditions in past years. The results will help you decide how hot, cold, wet, or windy it might be!

Date:

Astronomy

Jun. 17, 2013 Rise Set
Actual Time 6:32 AM EDT 8:37 PM EDT
Civil Twilight 6:05 AM EDT 9:05 PM EDT
Nautical Twilight 5:32 AM EDT 9:38 PM EDT
Astronomical Twilight 4:56 AM EDT 10:14 PM EDT
Moon 2:36 PM EDT (6/17) 1:44 AM EDT (6/17)
Length of Visible Light 14h 59m
Length of Day
14h 04m
First Quarter, 60% of the Moon is Illuminated
Jun 17
First Quarter
Jun 23
Full
Jun 30
Last Quarter
Jul 8
New
Jul 15
First Quarter

Hourly Weather History & Observations

Time (EDT) Temp. Heat Index Dew Point Humidity Pressure Visibility Wind Dir Wind Speed Gust Speed Precip Events Conditions
12:15 AM 77.0 °F - 71.6 °F 83% 30.09 in 10.0 mi ESE 4.6 mph - N/A   Mostly Cloudy
12:35 AM 77.0 °F - 71.6 °F 83% 30.09 in 10.0 mi SE 5.8 mph - N/A   Overcast
12:53 AM 79.0 °F - 72.0 °F 79% 30.06 in - SE 6.9 mph - N/A   Unknown
12:55 AM 77.0 °F - 71.6 °F 83% 30.08 in 10.0 mi ESE 6.9 mph - N/A   Overcast
1:15 AM 77.0 °F - 71.6 °F 83% 30.07 in 10.0 mi SE 4.6 mph - N/A   Mostly Cloudy
1:35 AM 75.2 °F - 71.6 °F 89% 30.07 in 10.0 mi SE 4.6 mph - N/A   Scattered Clouds
1:53 AM 77.0 °F - 72.0 °F 84% 30.05 in - Calm Calm - N/A   Unknown
1:55 AM 75.2 °F - 71.6 °F 89% 30.06 in 10.0 mi East 3.5 mph - N/A   Scattered Clouds
2:15 AM 75.2 °F - 71.6 °F 89% 30.06 in 10.0 mi Calm Calm - N/A   Clear
2:35 AM 73.4 °F - 71.6 °F 94% 30.06 in 10.0 mi ESE 3.5 mph - N/A   Clear
2:53 AM 75.9 °F - 72.0 °F 87% 30.04 in - Calm Calm - 0.01 in   Unknown
2:55 AM 73.4 °F - 71.6 °F 94% 30.06 in 10.0 mi Calm Calm - N/A   Clear
3:15 AM 73.4 °F - 71.6 °F 94% 30.05 in 10.0 mi ESE 4.6 mph - N/A   Clear
3:35 AM 73.4 °F - 71.6 °F 94% 30.05 in 7.0 mi East 3.5 mph - N/A   Clear
3:53 AM 75.0 °F - 72.0 °F 90% 30.03 in - ESE 4.6 mph - N/A   Unknown
3:55 AM 73.4 °F - 71.6 °F 94% 30.05 in 7.0 mi ESE 3.5 mph - N/A   Clear
4:15 AM 73.4 °F - 71.6 °F 94% 30.05 in 7.0 mi SE 4.6 mph - N/A   Clear
4:35 AM 71.6 °F - 71.6 °F 100% 30.05 in 5.0 mi Calm Calm - N/A   Clear
4:53 AM 73.9 °F - 71.1 °F 91% 30.03 in - Calm Calm - N/A   Unknown
4:55 AM 71.6 °F - 69.8 °F 94% 30.04 in 5.0 mi Calm Calm - N/A   Clear
5:15 AM 71.6 °F - 69.8 °F 94% 30.05 in 1.0 mi Calm Calm - N/A   Mist
5:35 AM 71.6 °F - 69.8 °F 94% 30.05 in 0.5 mi Calm Calm - N/A Fog Fog
5:53 AM 72.0 °F - 70.0 °F 93% 30.04 in - Calm Calm - 0.02 in   Unknown
5:55 AM 71.6 °F - 69.8 °F 94% 30.06 in 0.5 mi Calm Calm - N/A Fog Fog
6:15 AM 69.8 °F - 69.8 °F 100% 30.06 in 0.5 mi Calm Calm - N/A Fog Fog
6:35 AM 69.8 °F - 69.8 °F 100% 30.06 in 0.5 mi Calm Calm - N/A Fog Fog
6:53 AM 71.1 °F - 69.1 °F 93% 30.05 in - Calm Calm - N/A   Unknown
6:55 AM 69.8 °F - 69.8 °F 100% 30.07 in 0.2 mi Calm Calm - N/A Fog Fog
7:15 AM 69.8 °F - 69.8 °F 100% 30.07 in 0.5 mi Calm Calm - N/A Fog Fog
7:35 AM 71.6 °F - 71.6 °F 100% 30.06 in 2.5 mi Calm Calm - N/A   Mostly Cloudy
7:53 AM 75.0 °F - 72.0 °F 90% 30.05 in - Calm Calm - N/A   Unknown
7:55 AM 73.4 °F - 71.6 °F 94% 30.06 in 5.0 mi Calm Calm - N/A   Scattered Clouds
8:15 AM 73.4 °F - 73.4 °F 100% 30.07 in 10.0 mi Calm Calm - N/A   Clear
8:35 AM 77.0 °F - 73.4 °F 89% 30.08 in 10.0 mi SSE 3.5 mph - N/A   Clear
8:53 AM 81.0 °F 86.2 °F 73.9 °F 79% 30.06 in - Calm Calm - N/A   Unknown
8:55 AM 77.0 °F - 75.2 °F 94% 30.08 in 10.0 mi Calm Calm - N/A   Clear
9:15 AM 78.8 °F - 75.2 °F 89% 30.08 in 10.0 mi Calm Calm - N/A   Clear
9:35 AM - - - N/A% - - North - - N/A   Unknown
9:53 AM 84.0 °F 89.6 °F 72.0 °F 67% 30.06 in - SW 5.8 mph - 0.01 in   Unknown
9:55 AM - - - N/A% - - North - - N/A   Unknown
10:15 AM - - - N/A% - - North - - N/A   Unknown
10:35 AM - - - N/A% - - North - - N/A   Unknown
10:53 AM 86.0 °F 92.2 °F 72.0 °F 63% 30.04 in - SSW 6.9 mph - N/A   Unknown
10:55 AM - - - N/A% - - North - - N/A   Unknown
11:15 AM - - - N/A% - - North - - N/A   Unknown
11:53 AM 89.1 °F 95.0 °F 71.1 °F 55% 30.04 in - SW 10.4 mph - N/A   Unknown
11:55 AM 87.8 °F 92.6 °F 69.8 °F 55% 30.05 in 10.0 mi SSW 8.1 mph - 0.03 in   Scattered Clouds
12:15 PM 86.0 °F 90.4 °F 69.8 °F 58% 30.05 in 10.0 mi West 6.9 mph - N/A   Scattered Clouds
12:35 PM 87.8 °F 89.4 °F 64.4 °F 46% 30.05 in 10.0 mi SW 9.2 mph - N/A   Scattered Clouds
12:53 PM 90.0 °F 95.4 °F 70.0 °F 52% 30.03 in - SSW 6.9 mph - N/A   Unknown
12:55 PM 87.8 °F 91.4 °F 68.0 °F 52% 30.04 in 10.0 mi SSW 8.1 mph - N/A   Clear
1:15 PM 89.6 °F 92.2 °F 66.2 °F 46% 30.04 in 10.0 mi SW 10.4 mph - N/A   Scattered Clouds
1:35 PM 87.8 °F 90.4 °F 66.2 °F 49% 30.03 in 10.0 mi SSW 8.1 mph - N/A   Scattered Clouds
1:53 PM 91.0 °F 94.3 °F 66.9 °F 45% 30.02 in - SW 9.2 mph - N/A   Unknown
1:55 PM 89.6 °F 91.1 °F 64.4 °F 43% 30.04 in 10.0 mi SW 10.4 mph - N/A   Clear
2:15 PM 89.6 °F 91.1 °F 64.4 °F 43% 30.04 in 10.0 mi WSW 8.1 mph - N/A   Clear
2:35 PM 89.6 °F 92.2 °F 66.2 °F 46% 30.04 in 10.0 mi WSW 13.8 mph 17.3 mph N/A   Clear
2:53 PM 90.0 °F 95.4 °F 70.0 °F 52% 30.02 in - SW 11.5 mph - N/A   Unknown
2:55 PM 87.8 °F 91.4 °F 68.0 °F 52% 30.04 in 10.0 mi SW 12.7 mph - N/A   Clear
3:15 PM 87.8 °F 91.4 °F 68.0 °F 52% 30.04 in 10.0 mi WSW 12.7 mph 17.3 mph N/A   Clear
3:35 PM 87.8 °F 89.4 °F 64.4 °F 46% 30.03 in 10.0 mi WSW 9.2 mph 16.1 mph N/A   Clear
3:53 PM 89.1 °F 95.0 °F 71.1 °F 55% 30.01 in - SW 13.8 mph 18.4 mph N/A   Unknown
3:55 PM 87.8 °F 92.6 °F 69.8 °F 55% 30.03 in 10.0 mi WSW 13.8 mph - N/A   Clear
4:15 PM 87.8 °F 91.4 °F 68.0 °F 52% 30.02 in 10.0 mi WSW 11.5 mph - N/A   Clear
4:35 PM 86.0 °F 89.4 °F 68.0 °F 55% 30.02 in 10.0 mi SW 12.7 mph - N/A   Clear
4:53 PM 88.0 °F 92.9 °F 70.0 °F 55% 30.00 in - SW 16.1 mph - N/A   Unknown
4:55 PM 86.0 °F 90.4 °F 69.8 °F 58% 30.02 in 10.0 mi SW 15.0 mph 19.6 mph N/A   Clear
5:15 PM 86.0 °F 90.4 °F 69.8 °F 58% 30.02 in 10.0 mi SW 13.8 mph 17.3 mph N/A   Scattered Clouds
5:35 PM 86.0 °F 89.4 °F 68.0 °F 55% 30.01 in 10.0 mi SW 11.5 mph - N/A   Clear
5:53 PM 87.1 °F 92.0 °F 70.0 °F 57% 29.99 in - SSW 12.7 mph - N/A   Unknown
5:55 PM 86.0 °F 89.4 °F 68.0 °F 55% 30.00 in 10.0 mi SSW 13.8 mph - N/A   Clear
6:15 PM 84.2 °F 88.4 °F 69.8 °F 62% 30.00 in 10.0 mi SW 10.4 mph 17.3 mph N/A   Clear
6:35 PM 84.2 °F 88.4 °F 69.8 °F 62% 30.00 in 10.0 mi SW 9.2 mph - N/A   Clear
6:53 PM 84.9 °F 88.8 °F 69.1 °F 59% 29.99 in - SSW 13.8 mph - N/A   Unknown
6:55 PM 82.4 °F 85.4 °F 68.0 °F 62% 30.01 in 10.0 mi SW 11.5 mph - N/A   Clear
7:15 PM 82.4 °F 86.3 °F 69.8 °F 66% 30.01 in 10.0 mi SW 8.1 mph - N/A   Clear
7:35 PM 82.4 °F 86.3 °F 69.8 °F 66% 30.02 in 10.0 mi SW 9.2 mph - N/A   Clear
7:53 PM 82.9 °F 87.5 °F 71.1 °F 67% 30.00 in - SW 8.1 mph - N/A   Unknown
7:55 PM 80.6 °F 83.9 °F 69.8 °F 70% 30.02 in 10.0 mi SW 8.1 mph - N/A   Clear
8:15 PM 78.8 °F - 69.8 °F 74% 30.02 in 10.0 mi SW 6.9 mph - N/A   Clear
8:35 PM 78.8 °F - 69.8 °F 74% 30.02 in 10.0 mi WSW 5.8 mph - N/A   Clear
8:53 PM 79.0 °F - 70.0 °F 74% 30.00 in - SW 4.6 mph - 0.01 in   Unknown
8:55 PM 77.0 °F - 69.8 °F 78% 30.02 in 10.0 mi SW 4.6 mph - N/A   Clear
9:15 PM 77.0 °F - 69.8 °F 78% 30.02 in 10.0 mi West 5.8 mph - N/A   Clear
9:35 PM 77.0 °F - 69.8 °F 78% 30.02 in 10.0 mi SW 3.5 mph - N/A   Clear
9:53 PM 78.1 °F - 70.0 °F 76% 30.01 in - Calm Calm - 0.01 in   Unknown
9:55 PM 77.0 °F - 69.8 °F 78% 30.02 in 10.0 mi Calm Calm - N/A   Clear
10:15 PM 75.2 °F - 69.8 °F 83% 30.03 in 10.0 mi Calm Calm - N/A   Clear
10:35 PM 73.4 °F - 69.8 °F 88% 30.04 in 10.0 mi Calm Calm - N/A   Clear
10:53 PM 75.9 °F - 70.0 °F 82% 30.03 in - Calm Calm - N/A   Unknown
10:55 PM 73.4 °F - 69.8 °F 88% 30.04 in 10.0 mi Calm Calm - N/A   Clear
11:15 PM 71.6 °F - 68.0 °F 88% 30.05 in 10.0 mi Calm Calm - N/A   Clear
11:35 PM 71.6 °F - 69.8 °F 94% 30.05 in 10.0 mi Calm Calm - N/A   Clear
11:53 PM 73.0 °F - 70.0 °F 90% 30.03 in - Calm Calm - N/A   Unknown
11:55 PM 71.6 °F - 69.8 °F 94% 30.05 in 10.0 mi Calm Calm - N/A   Clear